This is the latest recevied weather packets stored in our database for station/object KC1ELF. If no packets are shown the sender has not sent any weather packets the latest 10 day(s).
| Time | Temp. | Humidity | Pressure | Rain* | Wind** | Luminosity | Snow |
|---|---|---|---|---|---|---|---|
| 1778003495 | 31.11° C | 36% | 1006.3 hPa | 0 mm | - | - | - |
| 1778002895 | 30.56° C | 37% | 1006.5 hPa | 0 mm | - | - | - |
| 1778002295 | 30° C | 38% | 1006.6 hPa | 0 mm | - | - | - |
| 1778001695 | 28.89° C | 40% | 1006.9 hPa | 0 mm | - | - | - |
| 1778001097 | 27.78° C | 41% | 1007.2 hPa | 0 mm | - | - | - |
| 1778000495 | 27.22° C | 42% | 1007.1 hPa | 0 mm | - | - | - |
| 1777999895 | 27.22° C | 43% | 1007.2 hPa | 0 mm | - | - | - |
| 1777999296 | 27.22° C | 46% | 1007.3 hPa | 0 mm | - | - | - |
| 1777998696 | 26.67° C | 46% | 1007.7 hPa | 0 mm | - | - | - |
| 1777998096 | 26.11° C | 47% | 1007.8 hPa | 0 mm | - | - | - |
| 1777997495 | 25.56° C | 47% | 1008.1 hPa | 0 mm | - | - | - |
| 1777996896 | 25.56° C | 49% | 1008.2 hPa | 0 mm | - | - | - |
| 1777996296 | 25° C | 49% | 1008.4 hPa | 0 mm | - | - | - |
| 1777995695 | 24.44° C | 50% | 1008.5 hPa | 0 mm | - | - | - |
| 1777995096 | 24.44° C | 50% | 1008.5 hPa | 0 mm | - | - | - |
| 1777994496 | 23.89° C | 52% | 1008.5 hPa | 0 mm | - | - | - |
| 1777993896 | 23.33° C | 52% | 1008.5 hPa | 0 mm | - | - | - |
| 1777993295 | 22.78° C | 52% | 1008.8 hPa | 0 mm | - | - | - |
| 1777992695 | 22.22° C | 55% | 1009 hPa | 0 mm | - | - | - |
| 1777992096 | 21.67° C | 56% | 1009.1 hPa | 0 mm | - | - | - |
| 1777991496 | 21.67° C | 57% | 1009 hPa | 0 mm | - | - | - |
| 1777990896 | 21.11° C | 59% | 1008.8 hPa | 0 mm | - | - | - |
| 1777989695 | 19.44° C | 61% | 1008.9 hPa | 0 mm | - | - | - |
| 1777989095 | 19.44° C | 62% | 1008.9 hPa | 0 mm | - | - | - |
| 1777988495 | 18.33° C | 64% | 1008.9 hPa | 0 mm | - | - | - |
* Rain latest hour (hover to see other rain measurements)
** Current wind speed in m/s (hover to see current wind gust speed)